Date,TemperatureHighF,TemperatureAvgF,TemperatureLowF,DewpointHighF,DewpointAvgF,DewpointLowF,HumidityHigh,HumidityAvg,HumidityLow,PressureMaxIn,PressureMinIn,WindSpeedMaxMPH,WindSpeedAvgMPH,GustSpeedMaxMPH,PrecipitationSumIn
2013-1-1,59,53,50,47,46,44,83,75,64,30.17,30.09,7,3,15,0.00
2013-1-2,60,52,46,50,46,42,86,80,68,30.34,30.17,5,2,10,0.00
2013-1-3,63,53,47,50,45,42,85,75,58,30.43,30.34,5,3,11,0.00
2013-1-4,61,54,48,44,39,33,76,58,35,30.37,30.09,7,2,12,0.00
2013-1-5,59,54,50,40,36,31,65,52,37,30.09,29.80,9,3,19,0.00
2013-1-6,53,48,44,39,36,31,74,64,55,29.93,29.73,13,6,33,0.00
2013-1-7,56,47,42,33,28,22,62,49,34,30.03,29.87,16,6,32,0.00
2013-1-8,45,38,34,34,29,20,91,69,38,30.23,30.02,13,6,29,0.27
2013-1-9,47,42,37,32,26,22,67,55,44,30.27,30.19,10,4,22,0.00
2013-1-10,53,46,38,39,32,26,71,59,40,30.21,30.05,5,2,10,0.00
2013-1-11,63,55,47,52,48,38,92,76,58,30.05,29.83,6,2,13,0.06
2013-1-12,61,53,47,48,44,42,87,73,55,30.06,29.83,9,3,19,0.00
2013-1-13,60,52,47,44,42,36,79,69,42,30.25,30.06,6,3,11,0.00
2013-1-14,60,54,50,50,46,43,80,74,68,30.30,30.24,7,3,16,0.00
2013-1-15,62,56,50,54,50,45,86,79,69,30.28,30.04,10,4,22,0.05
2013-1-16,61,57,52,54,50,40,93,77,51,30.04,29.68,17,8,35,1.52
2013-1-17,61,56,49,52,47,42,81,73,59,29.80,29.67,11,6,22,0.02
2013-1-18,60,55,48,53,47,39,87,74,57,29.66,29.48,18,8,32,0.22
2013-1-19,57,52,47,43,40,38,78,64,50,29.88,29.56,14,7,25,0.00
2013-1-20,65,57,50,56,48,42,85,72,53,29.97,29.87,7,2,15,0.00
2013-1-21,66,59,53,56,52,47,90,76,51,29.94,29.68,11,5,26,0.00
2013-1-22,64,58,52,54,48,45,85,71,52,29.82,29.68,8,3,17,0.00
2013-1-23,61,57,54,48,43,40,75,61,47,29.98,29.82,15,5,25,0.00
2013-1-24,63,56,50,55,49,44,90,77,67,29.97,29.60,21,6,38,0.56
2013-1-25,59,53,47,50,46,42,90,79,62,29.67,29.51,14,5,36,0.54
2013-1-26,58,52,48,49,46,43,86,80,63,29.67,29.46,7,3,14,0.50
2013-1-27,55,50,48,43,42,40,83,74,59,29.97,29.68,9,5,20,0.05
2013-1-28,57,51,48,45,42,38,81,70,58,30.02,29.92,7,3,15,0.00
2013-1-29,53,49,46,43,41,39,83,74,61,30.12,30.02,8,3,18,0.01
2013-1-30,60,52,45,40,33,22,79,51,24,30.12,29.96,9,4,16,0.00
2013-1-31,62,54,46,47,39,30,71,57,39,30.04,29.85,13,4,26,0.00
2013-2-1,60,54,49,44,35,28,69,49,35,30.08,29.92,17,4,31,0.00
2013-2-2,64,57,48,54,48,42,84,73,54,29.92,29.78,10,3,16,0.00
2013-2-3,65,61,59,56,55,53,88,79,66,29.94,29.80,15,9,32,0.00
2013-2-4,66,61,58,56,54,51,89,78,60,30.00,29.93,5,2,13,0.00
2013-2-5,65,60,55,54,50,46,87,72,53,30.01,29.86,8,4,16,0.00
2013-2-6,62,56,51,53,48,43,81,72,60,29.86,29.69,8,3,13,0.00
2013-2-7,62,57,51,53,49,44,89,75,63,29.73,29.53,18,7,43,1.11
2013-2-8,58,54,49,46,42,39,77,66,55,29.77,29.55,9,4,18,0.00
2013-2-9,60,53,46,43,41,38,81,65,46,29.89,29.77,9,4,18,0.00
2013-2-10,59,53,49,42,39,36,71,58,44,29.90,29.81,8,3,14,0.00
2013-2-11,56,51,47,41,36,32,77,58,43,30.07,29.79,14,6,24,0.00
2013-2-12,60,53,44,49,41,34,74,65,49,30.09,30.01,8,4,17,0.00
2013-2-13,57,54,48,50,47,44,92,79,63,30.01,29.91,15,5,35,1.52
2013-2-14,56,51,48,49,46,43,89,84,68,29.93,29.70,9,4,16,0.95
2013-2-15,55,50,47,46,44,42,87,80,69,30.04,29.70,13,4,23,0.41
2013-2-16,60,52,48,46,44,42,87,74,55,30.08,30.02,7,4,15,0.12
2013-2-17,49,48,46,46,42,39,89,82,74,30.09,29.97,12,5,26,0.99
2013-2-18,57,49,43,42,40,37,85,70,47,30.11,30.06,7,3,15,0.00
2013-2-19,58,52,47,51,45,40,91,78,66,30.07,29.79,9,3,18,0.30
2013-2-20,60,53,46,43,39,31,77,60,34,30.08,29.84,9,4,20,0.03
2013-2-21,57,53,49,50,44,41,86,73,62,30.07,29.74,7,4,16,0.02
2013-2-22,59,54,51,52,50,47,93,86,72,29.75,29.59,11,5,30,5.56
2013-2-23,64,56,49,53,49,47,91,78,58,30.05,29.75,7,2,11,0.00
2013-2-24,67,60,52,56,51,47,91,74,56,30.11,30.04,8,4,17,0.00
2013-2-25,70,62,57,56,53,49,87,73,50,30.10,29.99,11,5,22,0.00
2013-2-26,67,60,54,56,49,38,88,67,36,30.06,29.98,11,4,19,0.00
2013-2-27,59,55,52,45,41,37,72,61,44,30.08,29.96,15,6,26,0.00
2013-2-28,56,51,48,42,41,38,75,67,59,30.23,30.08,11,6,24,0.00
2013-3-1,59,51,44,42,39,35,77,63,45,30.21,30.04,6,2,13,0.00
2013-3-2,59,53,46,47,43,40,80,70,58,30.04,29.90,9,3,21,0.00
2013-3-3,57,53,50,48,43,38,84,69,52,29.98,29.79,18,11,38,0.35
2013-3-4,62,53,46,44,40,37,79,62,40,30.19,29.98,7,2,13,0.00
2013-3-5,60,52,48,42,38,35,73,60,46,30.43,30.19,10,6,22,0.00
2013-3-6,59,52,46,41,37,32,67,56,37,30.42,30.16,10,4,20,0.00
2013-3-7,59,55,53,52,48,41,87,77,64,30.17,29.94,7,2,12,0.19
2013-3-8,64,57,52,54,51,48,87,80,61,29.94,29.87,6,2,11,0.00
2013-3-9,69,61,53,55,52,50,90,74,55,29.88,29.74,10,3,18,0.03
2013-3-10,68,62,57,52,50,45,79,66,45,29.83,29.73,8,3,15,0.00
2013-3-11,70,62,55,58,54,48,85,75,55,29.73,29.59,11,4,21,0.00
2013-3-18,58,52,46,47,40,37,75,65,52,30.20,30.04,7,4,15,0.00
2013-3-20,67,61,53,56,51,48,87,71,53,29.92,29.82,7,3,14,0.00
2013-3-21,69,64,59,56,52,41,84,68,48,29.82,29.55,12,4,25,0.00
2013-3-22,63,59,54,42,39,35,63,49,36,29.70,29.55,21,13,39,0.00
2013-3-23,66,58,50,43,26,15,56,31,16,29.94,29.78,8,4,16,0.00
2013-3-25,68,62,57,56,52,50,86,72,55,29.96,29.62,13,6,26,0.00
2013-3-26,66,61,58,56,49,46,88,66,51,29.65,29.54,14,7,26,0.00
2013-3-27,69,62,56,54,49,44,69,63,48,29.85,29.66,11,4,20,0.00
2013-3-28,69,60,57,54,51,47,82,71,57,30.07,29.85,6,2,11,0.10
2013-3-29,68,61,55,54,52,50,86,74,56,30.07,30.00,5,3,11,0.00
2013-3-30,73,65,58,55,52,49,80,63,45,30.01,29.84,8,3,17,0.00
2013-3-31,68,64,61,58,55,51,85,74,63,29.86,29.74,8,4,16,0.00
2013-4-1,72,65,58,57,46,37,86,53,28,29.89,29.78,14,6,24,0.00
2013-4-2,71,65,59,54,48,45,65,54,41,29.89,29.58,9,3,19,0.00
2013-4-3,69,64,60,57,49,42,85,60,39,29.67,29.47,17,8,30,0.00
2013-4-4,71,64,57,47,44,40,64,51,33,29.94,29.68,17,6,29,0.00
2013-4-5,71,64,58,53,48,40,66,56,33,29.96,29.81,10,4,24,0.00
2013-4-6,72,66,58,56,51,46,73,59,41,29.82,29.72,5,2,10,0.00
2013-4-7,72,66,62,60,53,46,85,62,48,29.71,29.32,16,8,33,0.01
2013-4-8,62,60,56,53,49,47,82,67,59,29.90,29.41,11,5,22,0.09
2013-4-9,68,61,54,51,48,44,81,63,41,30.00,29.90,13,5,25,0.03
2013-4-10,71,62,55,54,49,43,79,63,38,30.01,29.92,8,4,17,0.00
2013-4-11,76,65,56,54,48,41,73,57,29,30.03,29.92,8,3,18,0.00
2013-4-12,72,65,57,52,48,43,70,55,42,30.08,30.00,8,3,14,0.00
2013-4-13,74,66,58,54,49,46,67,55,40,30.11,30.06,8,3,14,0.00
2013-4-14,78,68,62,54,49,45,69,53,33,30.10,30.04,15,6,32,0.00
2013-4-15,66,62,57,47,44,38,64,52,38,30.10,30.01,15,7,31,0.00
2013-4-16,68,60,54,47,43,37,74,55,36,30.09,30.02,15,8,30,0.04
2013-4-17,69,62,57,42,34,25,57,37,20,30.11,30.05,13,7,29,0.00
2013-4-18,66,61,56,39,32,24,52,35,21,30.10,30.02,15,8,31,0.00
2013-4-19,64,59,54,45,38,33,65,46,36,30.03,29.95,14,6,32,0.02
2013-4-20,69,61,55,44,40,36,61,47,34,30.05,29.95,12,6,24,0.00
2013-4-21,75,64,56,51,41,37,65,44,26,30.05,29.95,10,4,23,0.00
2013-4-22,75,66,58,50,43,39,63,45,28,30.08,29.99,7,3,14,0.00
2013-4-23,75,67,60,49,46,42,60,48,37,30.23,30.08,11,4,18,0.00
2013-4-24,82,70,59,54,45,32,66,44,17,30.32,30.23,9,4,20,0.00
2013-4-25,85,74,65,49,46,42,52,38,25,30.30,30.17,9,4,18,0.00
2013-4-26,85,74,62,52,44,37,52,36,21,30.18,30.00,8,3,16,0.00
2013-4-27,82,73,64,49,44,41,46,36,25,30.01,29.92,9,3,16,0.00
2013-4-28,80,71,63,57,47,40,68,44,26,30.06,29.95,8,3,15,0.00
2013-4-29,84,73,64,55,46,40,54,38,25,30.12,30.05,7,2,14,0.00
2013-4-30,89,79,67,51,46,42,50,33,21,30.11,30.03,11,4,22,0.00
2013-5-1,90,81,72,52,47,40,42,31,24,30.07,29.95,11,5,23,0.00
2013-5-2,76,76,76,41,41,41,28,28,28,29.97,29.97,2,2,5,0.00
2013-5-8,79,71,66,61,57,50,74,62,43,29.91,29.82,10,4,21,0.00
2013-5-9,77,69,64,58,56,54,73,64,48,29.91,29.83,15,6,27,0.00
2013-5-10,74,68,62,58,55,51,83,63,48,29.91,29.84,9,5,22,0.08
2013-5-11,77,70,64,60,56,51,78,61,48,29.89,29.76,10,4,19,0.00
2013-5-12,80,73,68,59,56,50,69,56,37,29.77,29.66,13,5,24,0.00
2013-5-13,75,69,64,60,53,49,79,58,40,29.70,29.64,11,5,22,0.15
2013-5-14,74,66,61,55,53,50,80,63,46,29.86,29.68,11,6,23,0.25
2013-5-15,78,70,61,59,53,50,72,57,41,29.89,29.84,9,4,17,0.00
2013-5-16,78,70,64,59,56,52,75,62,45,29.92,29.85,7,3,17,0.00
2013-5-17,79,72,66,62,58,55,76,63,45,29.95,29.83,7,2,13,0.02
2013-5-18,89,76,67,63,59,58,75,57,37,30.00,29.91,7,2,14,0.00
2013-5-19,91,80,72,62,58,54,63,49,30,29.98,29.90,8,2,15,0.00
2013-5-20,90,81,73,64,61,57,64,51,35,29.93,29.87,6,2,14,0.00
2013-5-21,89,80,73,62,56,49,59,45,27,29.93,29.86,7,3,14,0.00
2013-5-22,84,78,73,62,57,50,65,50,31,29.90,29.74,10,3,18,0.00
2013-5-23,85,78,70,63,55,47,67,46,31,29.73,29.58,14,8,25,0.00
2013-5-24,78,72,67,54,52,48,59,49,40,29.92,29.71,13,7,23,0.00
2013-5-25,81,73,67,58,51,46,56,46,31,29.95,29.89,13,6,25,0.00
2013-5-26,84,75,67,55,51,44,58,44,28,29.96,29.84,15,6,26,0.00
2013-5-27,80,72,66,55,45,33,60,39,20,29.97,29.89,13,5,23,0.00
2013-5-28,77,71,65,61,54,47,71,55,36,29.96,29.77,10,3,23,0.00
2013-5-29,88,78,73,63,54,40,66,44,29,29.77,29.57,9,5,21,0.00
2013-5-30,86,77,71,63,56,44,71,49,29,29.74,29.65,12,5,19,0.00
2013-5-31,81,75,69,61,50,42,66,43,28,29.79,29.66,15,8,26,0.00
2013-6-1,75,69,65,60,49,41,76,50,35,29.87,29.79,12,4,23,0.03
2013-6-2,77,70,63,59,52,45,75,53,35,29.84,29.68,17,7,29,0.08
2013-6-3,81,72,65,58,52,46,64,51,29,29.88,29.83,10,5,19,0.00
2013-6-4,82,74,68,60,55,47,65,52,30,29.89,29.82,12,5,22,0.00
2013-6-5,81,74,68,59,53,44,62,48,29,29.95,29.88,10,4,18,0.00
2013-6-6,83,75,69,63,57,52,72,55,37,30.02,29.94,9,4,17,0.00
2013-6-7,73,73,73,56,56,56,54,54,54,30.00,30.00,2,2,4,0.00
2013-6-8,86,76,70,63,58,54,71,56,37,29.86,29.80,10,4,21,0.05
2013-6-9,84,75,68,63,58,56,73,57,40,29.95,29.86,8,3,17,0.00
2013-6-10,84,77,70,61,59,57,67,53,41,29.95,29.82,9,3,17,0.00
2013-6-11,88,80,73,64,57,50,69,48,28,29.83,29.61,11,5,22,0.03
2013-6-12,84,74,66,62,55,50,79,53,34,29.78,29.65,11,5,24,0.32
2013-6-13,79,71,66,62,58,56,81,64,48,29.85,29.75,9,5,17,0.06
2013-6-14,82,74,68,63,59,57,78,60,48,29.92,29.83,10,5,19,0.04
2013-6-15,84,76,69,64,59,57,69,56,45,29.94,29.89,9,3,17,0.01
2013-6-16,91,80,71,67,62,56,68,55,37,29.96,29.91,8,3,15,0.00
2013-6-17,95,85,75,65,58,55,67,42,29,29.98,29.92,10,4,19,0.00
2013-6-18,93,86,79,60,57,53,49,38,26,29.97,29.91,16,7,36,0.00
2013-6-19,93,86,79,60,56,50,46,36,28,29.93,29.85,17,9,38,0.00
2013-6-20,95,87,82,59,55,52,44,34,27,29.95,29.84,14,8,34,0.00
2013-6-21,91,84,79,60,57,54,49,39,31,29.95,29.88,12,7,27,0.00
2013-6-22,96,86,77,56,51,43,48,31,18,29.93,29.83,12,5,28,0.00
2013-6-23,98,87,78,63,56,50,50,36,27,29.86,29.77,7,3,15,0.00
2013-6-24,95,86,79,66,59,52,51,41,24,29.80,29.75,10,4,17,0.00
2013-6-25,96,86,79,64,58,52,51,39,23,29.78,29.74,8,4,15,0.00
2013-6-26,94,85,78,68,59,54,55,42,32,29.87,29.77,9,4,15,0.00
2013-6-27,93,84,79,66,62,58,63,49,31,29.90,29.84,8,4,16,0.00
2013-6-28,90,82,76,67,62,59,66,53,38,29.91,29.86,8,4,17,0.00
2013-6-29,79,79,79,64,64,64,61,61,61,29.91,29.91,2,2,4,0.00
2013-7-1,90,79,72,63,54,47,62,44,25,30.00,29.87,10,5,19,0.00
2013-7-2,90,80,73,63,58,51,69,48,27,30.02,29.94,8,3,18,0.00
2013-7-3,90,81,73,63,54,49,61,39,30,29.97,29.87,9,4,17,0.00
2013-7-4,91,82,73,63,54,49,66,40,29,29.92,29.84,11,4,23,0.00
2013-7-5,89,82,76,60,54,48,44,38,30,29.91,29.85,11,6,22,0.00
2013-7-6,88,82,77,63,58,55,58,45,36,29.89,29.83,13,8,27,0.00
2013-7-7,92,84,78,62,60,56,55,44,33,29.95,29.84,13,8,27,0.00
2013-7-8,94,86,79,60,56,52,51,37,24,29.97,29.91,11,7,22,0.00
2013-7-9,95,87,81,62,57,52,46,37,27,29.97,29.82,10,7,21,0.00
2013-7-10,94,85,79,62,59,51,55,42,28,29.85,29.72,11,6,22,0.00
2013-7-11,95,85,79,65,58,52,53,41,27,29.83,29.75,9,5,18,0.00
2013-7-12,93,85,78,66,60,54,54,44,34,29.90,29.82,8,3,14,0.00
2013-7-13,84,84,84,54,54,54,36,36,36,29.90,29.90,2,2,5,0.00
2013-7-15,93,85,79,61,56,54,47,38,28,29.90,29.82,10,4,22,0.00
2013-7-16,91,84,78,62,56,52,55,39,29,29.92,29.85,10,4,25,0.00
2013-7-17,83,79,75,61,58,53,60,49,39,29.97,29.92,13,7,27,0.00
2013-7-18,88,81,76,59,55,49,54,41,27,30.01,29.95,15,9,30,0.00
2013-7-19,90,82,76,56,53,48,48,37,26,30.00,29.90,12,7,28,0.00
2013-7-20,92,83,76,57,53,47,45,36,24,29.91,29.80,11,6,22,0.00
2013-7-21,95,86,78,56,54,49,42,34,25,29.87,29.80,11,6,25,0.00
2013-7-22,88,82,77,64,59,55,61,47,35,29.89,29.83,13,7,26,0.00
2013-7-23,90,81,75,60,52,43,57,39,22,29.89,29.83,12,7,25,0.00
2013-7-24,97,86,77,51,48,44,35,27,18,29.90,29.85,12,6,25,0.00
2013-7-25,98,87,78,60,53,44,44,32,16,29.93,29.85,9,3,18,0.00
2013-7-26,100,89,79,60,54,49,43,31,20,29.89,29.80,8,3,17,0.00
2013-7-27,87,87,87,57,57,57,37,37,37,29.84,29.84,1,1,3,0.00
2013-7-29,98,89,81,57,54,50,44,31,21,30.00,29.90,13,6,26,0.00
2013-7-30,100,90,83,66,57,51,47,33,24,29.91,29.74,8,3,15,0.00
2013-7-31,99,90,84,66,61,56,45,38,30,29.79,29.70,12,6,24,0.00
2013-8-1,92,86,81,67,61,56,61,44,33,29.92,29.79,13,8,29,0.00
2013-8-2,91,85,80,62,57,51,53,39,29,29.95,29.91,13,7,26,0.00
2013-8-3,94,86,80,61,56,50,50,36,26,29.93,29.90,14,7,28,0.00
2013-8-11,93,86,80,69,55,46,69,37,21,29.83,29.66,13,7,27,0.00
2013-8-12,94,86,79,63,54,50,51,35,23,29.91,29.84,12,6,26,0.00
2013-8-13,96,88,81,57,53,46,40,31,23,29.91,29.83,12,7,27,0.00
2013-8-14,97,88,82,57,51,43,40,29,18,29.85,29.79,13,6,31,0.00
2013-8-15,84,84,84,51,51,51,32,32,32,29.82,29.82,5,5,11,0.00
2013-8-17,92,85,79,64,62,58,59,47,33,29.91,29.83,13,7,28,0.00
2013-8-18,95,86,79,61,54,50,50,35,25,29.96,29.89,12,7,25,0.00
2013-8-19,96,87,80,57,52,49,38,31,22,29.94,29.86,12,6,28,0.00
2013-8-20,96,87,81,56,53,46,41,32,19,29.88,29.81,14,7,32,0.00
2013-8-21,91,84,79,61,56,50,52,39,27,29.88,29.84,11,6,24,0.00
2013-8-22,91,83,77,61,58,54,55,44,32,29.86,29.81,10,5,22,0.00
2013-8-26,94,84,77,64,58,54,53,41,28,29.88,29.82,7,3,14,0.00
2013-8-27,96,86,78,67,61,55,58,44,26,29.88,29.81,7,3,13,0.00
2013-8-28,98,88,80,69,62,57,56,44,26,29.86,29.80,11,3,19,0.00
2013-8-29,97,87,82,68,62,55,56,45,26,29.89,29.82,8,4,15,0.00
2013-8-30,95,86,81,67,60,54,60,42,27,29.92,29.83,9,4,19,0.00
2013-8-31,90,82,77,69,58,52,67,45,31,29.98,29.89,11,6,24,0.00
2013-9-1,89,81,75,61,54,46,61,40,28,30.05,29.98,9,5,21,0.00
2013-9-8,89,80,72,59,56,47,62,45,32,30.11,30.00,12,4,25,0.00
2013-9-9,88,79,72,56,51,47,54,38,28,30.15,30.07,11,6,21,0.00
2013-9-10,87,79,72,64,55,46,61,45,32,30.09,30.00,7,3,13,0.00
2013-9-11,88,81,73,69,62,55,67,53,43,30.02,29.93,9,3,15,0.00
2013-9-12,92,83,76,68,64,59,68,54,38,29.95,29.90,7,3,13,0.00
2013-9-13,91,83,78,69,64,60,66,53,35,29.94,29.88,13,5,24,0.00
2013-9-14,89,80,74,61,55,42,58,43,20,30.01,29.92,10,6,20,0.00
2013-9-16,81,77,72,66,60,52,67,56,38,29.89,29.63,12,4,23,0.00
2013-9-18,86,80,74,63,58,51,67,50,32,29.67,29.60,15,8,28,0.00
2013-9-21,79,72,70,65,62,58,77,69,51,30.01,29.93,9,7,18,0.00
2013-9-22,78,73,69,58,54,51,61,52,41,30.07,30.02,12,6,25,0.00
2013-9-26,84,76,69,66,62,55,82,65,40,30.01,29.89,7,3,13,0.00
2013-9-27,87,78,70,65,58,52,69,53,33,29.90,29.85,7,3,20,0.00
2013-9-29,84,76,70,68,63,58,79,64,48,29.93,29.86,8,3,14,0.00
2013-9-30,83,77,70,69,64,60,79,66,52,29.88,29.63,9,3,18,0.00
2013-10-1,80,74,67,71,64,56,89,72,48,29.65,29.52,19,6,44,1.13
2013-10-2,78,71,65,60,56,54,70,60,45,29.88,29.61,13,5,28,0.00
2013-10-6,71,60,54,48,45,44,70,59,38,30.33,30.25,9,5,18,0.00
2013-10-7,72,63,56,50,47,44,71,57,39,30.34,30.28,10,6,22,0.00
2013-10-8,78,67,60,54,49,46,63,55,35,30.33,30.24,7,3,14,0.00
2013-10-9,77,68,61,57,52,47,69,57,36,30.27,30.15,6,3,11,0.00
2013-10-10,72,67,63,63,59,55,84,77,69,30.16,30.05,7,2,12,0.02
2013-10-11,83,71,63,67,59,57,83,69,43,30.15,30.09,6,2,10,0.00
2013-10-14,83,74,68,60,56,52,75,54,35,30.15,30.07,9,5,18,0.00
2013-10-15,78,72,66,65,60,52,82,67,54,30.14,29.97,6,2,13,0.00
2013-10-16,73,70,65,66,63,60,85,77,67,29.97,29.58,17,2,30,0.33
2013-10-17,72,67,61,64,51,40,81,58,34,29.75,29.50,15,6,28,0.23
2013-10-18,76,68,63,55,49,45,65,50,35,30.02,29.75,10,5,18,0.00
2013-10-19,78,70,64,54,44,40,65,41,27,30.34,30.03,8,4,17,0.00
2013-10-20,76,66,60,52,48,43,70,53,34,30.41,30.33,8,5,17,0.00
2013-10-21,74,66,57,57,48,41,72,53,34,30.34,30.20,7,3,14,0.00
2013-10-22,76,66,58,58,53,51,79,64,46,30.21,30.12,6,2,11,0.00
2013-10-23,80,70,60,55,51,45,70,53,39,30.21,30.14,12,4,25,0.00
2013-10-24,79,70,65,54,51,45,68,51,37,30.21,30.15,9,5,21,0.00
2013-10-25,72,63,60,50,47,45,61,55,46,30.18,30.14,6,1,12,0.00
2013-10-27,78,66,57,56,43,33,69,44,24,30.17,30.08,5,2,11,0.00
2013-10-28,76,67,57,60,51,46,74,58,35,30.11,30.05,5,2,9,0.00
2013-10-30,77,68,60,60,54,50,73,62,41,30.07,30.01,5,2,10,0.00
2013-11-2,72,64,58,55,52,49,75,64,47,30.17,30.08,4,2,9,0.00
2013-11-3,68,60,58,57,54,52,82,78,69,30.11,30.08,3,2,7,0.00
2013-11-5,74,69,64,63,60,54,85,75,52,29.94,29.76,12,5,25,0.00
2013-11-7,71,65,60,59,52,39,85,64,42,30.12,29.68,16,6,28,0.00
2013-11-8,74,65,59,52,46,39,64,49,38,30.17,30.10,6,4,11,0.00
2013-11-9,74,65,59,57,52,47,74,61,49,30.12,30.03,6,3,9,0.00
2013-11-11,72,66,62,64,61,58,92,84,74,29.99,29.83,11,4,27,3.98
2013-11-14,65,61,58,57,55,51,92,80,69,29.99,29.88,15,7,27,1.43
2013-11-15,65,60,58,54,52,51,81,74,63,30.14,29.92,11,7,21,0.06
2013-11-16,64,60,58,52,51,47,80,73,63,30.20,30.13,14,7,26,0.00
2013-11-17,63,59,55,48,44,42,71,59,46,30.20,30.12,10,5,21,0.00
2013-11-18,64,58,54,48,46,44,73,65,51,30.17,30.12,7,2,15,0.00
2013-11-19,66,59,54,53,48,46,75,67,52,30.17,30.04,6,2,12,0.00
2013-11-20,70,65,60,63,59,53,90,82,75,30.04,29.88,8,3,16,0.42
2013-11-21,70,64,58,61,56,53,90,75,58,29.90,29.77,9,4,18,1.92
2013-11-22,67,60,56,56,54,49,91,82,54,29.79,29.72,9,2,16,0.11
2013-11-26,66,59,54,55,51,48,83,74,54,29.75,29.71,5,2,11,0.06
2013-11-29,59,49,45,44,37,35,69,63,55,30.26,30.17,4,2,8,0.00
2013-11-30,56,54,51,50,47,42,84,76,66,30.17,30.07,9,6,17,0.15
2013-12-1,65,60,54,58,54,49,87,80,73,30.09,29.96,10,6,28,0.23
2013-12-4,50,47,43,40,38,35,83,71,59,30.19,30.09,15,9,29,0.26
2013-12-5,60,50,42,38,35,31,77,57,34,30.12,30.06,8,3,16,0.00
2013-12-7,59,52,49,49,40,28,83,64,43,30.25,29.88,11,5,23,0.00
2013-12-8,54,48,45,30,27,23,53,45,31,30.39,30.26,9,5,19,0.00
2013-12-16,57,54,52,48,46,42,84,74,58,30.40,30.33,11,6,19,0.00
2013-12-19,55,50,46,40,39,37,76,66,52,30.32,30.26,8,4,19,0.00
2013-12-21,60,50,43,44,39,36,79,67,54,30.56,30.49,5,2,8,0.00
2013-12-22,62,50,43,39,36,32,69,58,38,30.55,30.43,5,2,11,0.00
2013-12-23,59,52,46,44,40,38,79,66,49,30.43,30.33,7,4,13,0.00
2013-12-28,60,56,54,51,50,49,90,83,71,29.94,29.83,12,7,27,0.12
2014-1-1,52,50,48,46,43,39,89,79,69,30.21,30.12,8,3,14,0.51
2014-1-2,57,52,50,47,46,45,87,79,65,30.15,30.10,6,2,13,0.08